Regional Weather Roundup
Issued by NWS Little Rock, AR

Home | Current Version | Previous Version | Graphics & Text | Print | Product List | Glossary On
Versions: 1 2 3 4 5 6 7 8 9 10 11 12 13 14 15 16 17 18 19 20 21 22 23 24 25 26 27 28 29 30 31 32 33 34 35 36 37 38 39 40 41 42 43 44 45 46 47 48 49 50
000
ASUS44 KLZK 311705
RWRLZK

WEATHER ROUNDUP FOR ARKANSAS
NATIONAL WEATHER SERVICE LITTLE ROCK AR
1200 PM CDT MON AUG 31 2015

NOTE: "FAIR" INDICATES FEW OR NO CLOUDS BELOW 12,000 FEET WITH NO
SIGNIFICANT WEATHER AND/OR OBSTRUCTIONS TO VISIBILITY.

ARZ001-003-010-029-311800-
NORTHWEST ARKANSAS

CITY           SKY/WX    TMP DP  RH WIND       PRES   REMARKS
FAYETTEVILLE   MOSUNNY   84  71  65 S10       30.09S HX  89
FORT SMITH     SUNNY     86  68  54 SE3       30.06F HX  89
BENTONVILLE    SUNNY     84  66  54 SW10G16   30.09S HX  86
ROGERS         SUNNY     85  69  58 SW12      30.10S HX  89
SILOAM SPGS    SUNNY     84  66  54 S12       30.07S HX  86
HIGHFILL       SUNNY     86  70  58 SW12      30.08S HX  90
SPRINGDALE     SUNNY     86  70  58 S12       30.11S HX  90
$$

ARZ004-005-016-311800-
NORTH CENTRAL ARKANSAS

CITY           SKY/WX    TMP DP  RH WIND       PRES   REMARKS
BATESVILLE     SUNNY     86  73  66 CALM      30.08F HX  93
FLIPPIN        SUNNY     88  66  48 S6        30.07F HX  90
MTN HOME       SUNNY     85  70  60 VRB5      30.09S HX  89
$$

ARZ040-041-311800-
WEST CENTRAL ARKANSAS

CITY           SKY/WX    TMP DP  RH WIND       PRES   REMARKS
MENA           SUNNY     90  68  48 W6        30.10S HX  93
MOUNT IDA      SUNNY     89  68  49 VRB3      30.06F HX  93
$$

ARZ009-017-025-026-028-311800-
NORTHEAST ARKANSAS

CITY           SKY/WX    TMP DP  RH WIND       PRES   REMARKS
JONESBORO      SUNNY     83  71  67 E7        30.09F HX  87
NEWPORT        SUNNY     84  72  67 SE3       30.10S HX  89
WALNUT RIDGE   SUNNY     82  70  65 S7        30.09S HX  86
BLYTHEVILLE    SUNNY     84  71  65 CALM      30.11S HX  89
$$

ARZ022-023-033-042-044-311800-
CENTRAL ARKANSAS

CITY           SKY/WX    TMP DP  RH WIND       PRES   REMARKS
LITTLE ROCK    MOSUNNY   90  70  51 VRB3      30.07F HX  95
N LITTLE ROCK  MOSUNNY   87  73  61 N7        30.07F HX  94
JACKSONVILLE   SUNNY     87  70  57 NE7       30.07F HX  92
SEARCY         SUNNY     85  72  65 NE3       30.10S HX  91
HOT SPRINGS    SUNNY     89  66  46 VRB5      30.07F HX  91
RUSSELLVILLE   SUNNY     87  70  56 S3        30.07F HX  92
$$

ARZ036-311800-
EAST ARKANSAS

CITY           SKY/WX    TMP DP  RH WIND       PRES   REMARKS
WEST MEMPHIS   SUNNY     85  72  65 SW7       30.08F HX  91
$$

ARZ050-053-066-070-073-311800-
SOUTHWEST ARKANSAS

CITY           SKY/WX    TMP DP  RH WIND       PRES   REMARKS
ARKADELPHIA    FAIR      93  69  45 W5        30.07S HX  98
CAMDEN         SUNNY     91  68  46 W3        30.06F HX  95
TEXARKANA      SUNNY     88  66  48 W3        30.07F HX  90
EL DORADO      SUNNY     87  65  47 SE6       30.08F HX  89
DE QUEEN       SUNNY     88  67  49 SW6       30.04F HX  91
$$

ARZ056-057-069-311800-
SOUTHEAST ARKANSAS

CITY           SKY/WX    TMP DP  RH WIND       PRES   REMARKS
PINE BLUFF     SUNNY     87  67  51 CALM      30.07F HX  90
STUTTGART      SUNNY     84  70  61 E3        30.08F HX  88
MONTICELLO     SUNNY     90  67  46 CALM      30.06F HX  93

$$




USA.gov is the U.S. government's official web portal to all federal, state and local government web resources and services.